STARLINK-1194 (45101 NORAD) Tracking and Keplerian Element Data

This shows tracking and keplerian element data for the satellite.

Feedback or suggestion? Click here.




ElementValue
Catalog45101
NameSTARLINK-1194
Epoch Orbit953
Epoch Day87.91667824
Epoch Year2020
RAAN306.4894
Inclination53.0004
Eccentricity0.0001233
Argument of Perigee56.0121
Mean Anonmoly272.3605
Mean Motion15.62763273
Decay Rate3.918E-05
L11 45101U 20006BK 20087.91667824 .00003918 00000-0 48584-4 0 9993
L22 45101 53.0004 306.4894 0001233 56.0121 272.3605 15.62763273 9537

Live tracking and technical data element details for STARLINK-1194 (NORAD 45101). STARLINK-1194 can be tracked NOW for your location showing map with azimuth and elevation plus other details from your city location.

Track the satellite on the map from your city or location and see movement details for azimuth, elevation, latitude, longitude, range, height, and movement on the map or in text.







IsCatalogInMostPopularTable: catalog: 45101, numindb: 11
Update: records affected: 1



GetName: 45101 STARLINK-1194

Hit Count: updated at: Sat, 28 Mar 2020 21:16:49 GMT